TimePDT,TemperatureF,Dew PointF,Humidity,Sea Level PressureIn,VisibilityMPH,Wind Direction,Wind SpeedMPH,Gust SpeedMPH,PrecipitationIn,Events,Conditions,WindDirDegrees,DateUTC
12:56 AM,73.0,46.9,39,29.88,10.0,West,8.1,-,N/A,,Clear,260,2012-10-10 07:56:00
1:56 AM,73.0,48.9,42,29.88,10.0,West,16.1,-,N/A,,Clear,260,2012-10-10 08:56:00
2:56 AM,72.0,46.0,40,29.87,10.0,West,12.7,-,N/A,,Clear,270,2012-10-10 09:56:00
3:56 AM,72.0,44.1,37,29.87,10.0,West,12.7,-,N/A,,Clear,260,2012-10-10 10:56:00
4:56 AM,71.1,46.0,41,29.88,10.0,WSW,9.2,-,N/A,,Clear,250,2012-10-10 11:56:00
5:56 AM,70.0,45.0,41,29.89,10.0,West,11.5,-,N/A,,Clear,280,2012-10-10 12:56:00
6:56 AM,69.1,45.0,42,29.90,10.0,West,11.5,-,N/A,,Partly Cloudy,280,2012-10-10 13:56:00
7:56 AM,72.0,45.0,38,29.92,10.0,West,11.5,-,N/A,,Clear,270,2012-10-10 14:56:00
8:56 AM,75.9,41.0,29,29.93,10.0,WNW,10.4,-,N/A,,Partly Cloudy,300,2012-10-10 15:56:00
9:56 AM,80.1,37.0,21,29.93,10.0,NW,9.2,-,N/A,,Partly Cloudy,310,2012-10-10 16:56:00
10:56 AM,84.0,33.1,16,29.92,10.0,North,4.6,-,N/A,,Partly Cloudy,360,2012-10-10 17:56:00
11:56 AM,84.9,35.1,17,29.90,10.0,Calm,Calm,-,N/A,,Partly Cloudy,0,2012-10-10 18:56:00
12:56 PM,86.0,41.0,20,29.87,10.0,East,5.8,-,N/A,,Clear,90,2012-10-10 19:56:00
1:56 PM,87.1,45.0,23,29.84,10.0,Variable,3.5,-,N/A,,Partly Cloudy,0,2012-10-10 20:56:00
2:56 PM,89.1,42.1,19,29.82,10.0,Calm,Calm,-,N/A,,Partly Cloudy,0,2012-10-10 21:56:00
3:56 PM,88.0,39.0,18,29.81,10.0,Variable,3.5,-,N/A,,Scattered Clouds,0,2012-10-10 22:56:00
4:56 PM,87.1,42.1,21,29.80,10.0,West,15.0,-,N/A,,Scattered Clouds,260,2012-10-10 23:56:00
5:56 PM,84.0,46.9,27,29.79,10.0,West,17.3,-,N/A,,Partly Cloudy,260,2012-10-11 00:56:00
6:56 PM,80.1,50.0,35,29.81,10.0,West,18.4,28.8,N/A,,Partly Cloudy,260,2012-10-11 01:56:00
7:56 PM,77.0,51.1,40,29.81,10.0,West,17.3,-,N/A,,Clear,280,2012-10-11 02:56:00
8:56 PM,75.9,51.1,42,29.82,10.0,West,21.9,-,N/A,,Partly Cloudy,260,2012-10-11 03:56:00
9:56 PM,73.9,51.1,45,29.83,10.0,West,19.6,-,N/A,,Clear,270,2012-10-11 04:56:00
10:56 PM,73.0,48.9,42,29.83,10.0,WNW,15.0,-,N/A,,Partly Cloudy,290,2012-10-11 05:56:00
11:56 PM,71.1,51.1,49,29.82,10.0,West,20.7,-,0.00,,Scattered Clouds,280,2012-10-11 06:56:00